星链-31101 (STARLINK-31101 )

导读 | 星芒AI

STARLINK-31101 是 SpaceX Starlink 卫星互联网项目中的一颗低轨卫星,属于 Starlink 群体部署计划的一部分。该卫星由 SpaceX 研制并发射,旨在为全球用户提供高速、低延迟的宽带互联网服务。它运行在约 550 公里的近地轨道上,采用先进的通信技术,支持全球范围内的网络连接。STARLINK-31101 的部署有助于扩大 Starlink 在偏远和网络基础设施薄弱地区的覆盖能力,提升全球互联网接入水平。

基本信息
目录编号:
58737
目录名称:
STARLINK-31101
国际标识:
2024-005K
轨道中心:
EARTH
卫星名称:
星链-31101
卫星全名:
星链-31101 (STARLINK-31101 )
卫星状态:
在轨 (已飞行663 天)
发射日期:
2024-01-07 UTC
国别 :
美国 (US)
星等 :
--
轨道信息
数据来源 国际轨道数据 AOE轨道数据
星历时间 2025-10-31T03:43:19+0800
1天前
查看轨道信息
2025-10-25T16:00:00+0800
6天前
查看轨道信息
半长轴 6937.229km 6937.237km
偏心率 0.0001471 0.0001469
轨道倾角 43.005° 43.003°
近地点辐角 267.408° 251.586°
升交点赤经 207.497° 237.319°
平近点角 92.659° 266.827°
近地点 558.073km 558.082km
远地点 560.115km 560.122km
周期 95.838分钟 95.838分钟
每日圈数 15.025322 15.025295
详细信息
固有亮度:
5
最大亮度:
0.3
卫星平台:
Starlink v2.0 mini
覆盖范围:
全球
运营商:
太空探索技术公司
运营商所在国:
美国
制造商(研发单位):
太空探索技术公司
制造商所在国:
美国
使用方式:
暂无
卫星简介
星链(Starlink)计划是由太空探索技术公司(SpaceX)提出的一个巨型低轨卫星互联网星座项目,计划在2019年至2024年间在太空搭建由约1.2万颗卫星组成的“星链”网络,其中1584颗将部署在地球上空550千米处的近地轨道,并从2020年开始工作。该卫星仍在工作。
2D轨道图
3D轨道图
轨道高度分析图
轨道倾角分析图
轨道综合分析图
查看轨道综合分析图